Weather History for Hazen, ND

Change the Weather History Date:

Friday, April 5, 2013

  Actual Average (KN60) Record (KN60)
Temperature  
Mean Temperature 36 °F -  
Max Temperature 48 °F 44 °F 70 °F (2012)
Min Temperature 23 °F 23 °F 9 °F (2007)
Degree Days  
Heating Degree Days 30    
Moisture  
Dew Point 22 °F    
Average Humidity 66    
Maximum Humidity 93    
Minimum Humidity 34    
Precipitation  
Precipitation 0.00 in - - ()
Sea Level Pressure  
Sea Level Pressure 29.87 in    
Wind  
Wind Speed 10 mph (SE)    
Max Wind Speed 22 mph    
Max Gust Speed 29 mph    
Visibility 10 miles    
Events      
Averages and records for this station are not official NWS values.
T = Trace of Precipitation, MM = Missing Value Source: NWS Daily Summary

Daily Weather History Graph

Daily Weather History Graph

Search for Another Location

Airport:

Trip Planner

Search our weather history database for the weather conditions in past years. The results will help you decide how hot, cold, wet, or windy it might be!

Date:

Astronomy

Apr. 05, 2013 Rise Set
Actual Time 7:16 AM CDT 8:21 PM CDT
Civil Twilight 6:45 AM CDT 8:53 PM CDT
Nautical Twilight 6:07 AM CDT 9:31 PM CDT
Astronomical Twilight 5:28 AM CDT 10:11 PM CDT
Moon 4:43 AM CDT (4/5) 3:31 PM CDT (4/5)
Length of Visible Light 14h 07m
Length of Day
13h 05m
Waning Crescent, 23% of the Moon is Illuminated
Apr 5
Waning Crescent
Apr 10
New
Apr 18
First Quarter
Apr 25
Full
May 2
Last Quarter

Hourly Weather History & Observations

Time (CDT) Temp. Windchill Dew Point Humidity Pressure Visibility Wind Dir Wind Speed Gust Speed Precip Events Conditions
12:15 AM 24.8 °F 17.9 °F 21.2 °F 86% 30.15 in 10.0 mi East 5.8 mph - N/A   Partly Cloudy
12:35 AM 24.8 °F 19.1 °F 21.2 °F 86% 30.14 in 10.0 mi ENE 4.6 mph - N/A   Clear
12:55 AM 23.0 °F 15.8 °F 19.4 °F 86% 30.14 in 10.0 mi East 5.8 mph - N/A   Clear
1:15 AM 24.8 °F 16.9 °F 21.2 °F 86% 30.13 in 10.0 mi East 6.9 mph - N/A   Clear
1:35 AM 24.8 °F 17.9 °F 21.2 °F 86% 30.13 in 10.0 mi East 5.8 mph - N/A   Clear
1:55 AM 24.8 °F 16.1 °F 23.0 °F 93% 30.12 in 10.0 mi East 8.1 mph - N/A   Clear
2:15 AM 24.8 °F 16.1 °F 23.0 °F 93% 30.12 in 10.0 mi ESE 8.1 mph 16.1 mph N/A   Clear
2:35 AM 24.8 °F 16.1 °F 23.0 °F 93% 30.11 in 10.0 mi ESE 8.1 mph - N/A   Clear
2:55 AM 24.8 °F 16.1 °F 23.0 °F 93% 30.10 in 10.0 mi East 8.1 mph - N/A   Clear
3:15 AM 24.8 °F 15.3 °F 23.0 °F 93% 30.09 in 10.0 mi ESE 9.2 mph - N/A   Clear
3:35 AM 24.8 °F 16.9 °F 23.0 °F 93% 30.09 in 10.0 mi East 6.9 mph - N/A   Mostly Cloudy
3:55 AM 24.8 °F 16.1 °F 23.0 °F 93% 30.08 in 10.0 mi East 8.1 mph - N/A   Overcast
4:15 AM 26.6 °F 19.1 °F 23.0 °F 86% 30.08 in 10.0 mi ESE 6.9 mph - N/A   Overcast
4:35 AM 26.6 °F 16.8 °F 23.0 °F 86% 30.07 in 10.0 mi ESE 10.4 mph - N/A   Overcast
4:55 AM 26.6 °F 16.8 °F 23.0 °F 86% 30.06 in 10.0 mi ESE 10.4 mph 16.1 mph N/A   Overcast
5:15 AM 26.6 °F 16.2 °F 23.0 °F 86% 30.06 in 10.0 mi SE 11.5 mph 19.6 mph N/A   Overcast
5:35 AM 26.6 °F 16.8 °F 23.0 °F 86% 30.04 in 10.0 mi ESE 10.4 mph 18.4 mph N/A   Overcast
5:55 AM 26.6 °F 16.8 °F 23.0 °F 86% 30.04 in 10.0 mi ESE 10.4 mph - N/A   Overcast
6:15 AM 26.6 °F 16.2 °F 23.0 °F 86% 30.02 in 10.0 mi SE 11.5 mph 17.3 mph N/A   Overcast
6:35 AM 26.6 °F 16.8 °F 23.0 °F 86% 30.02 in 10.0 mi SE 10.4 mph 18.4 mph N/A   Overcast
6:55 AM 26.6 °F 15.7 °F 23.0 °F 86% 30.01 in 10.0 mi SE 12.7 mph 18.4 mph N/A   Overcast
7:15 AM 26.6 °F 15.7 °F 23.0 °F 86% 30.01 in 10.0 mi SE 12.7 mph - N/A   Overcast
7:35 AM 26.6 °F 15.7 °F 23.0 °F 86% 29.98 in 10.0 mi SE 12.7 mph 19.6 mph N/A   Overcast
7:55 AM 26.6 °F 15.7 °F 23.0 °F 86% 29.98 in 10.0 mi ESE 12.7 mph 18.4 mph N/A   Overcast
8:15 AM 26.6 °F 15.7 °F 23.0 °F 86% 29.98 in 10.0 mi SE 12.7 mph 21.9 mph N/A   Overcast
8:35 AM 28.4 °F 18.0 °F 23.0 °F 80% 29.97 in 10.0 mi SE 12.7 mph 23.0 mph N/A   Overcast
8:55 AM 28.4 °F 16.2 °F 23.0 °F 80% 29.96 in 10.0 mi SE 17.3 mph 20.7 mph N/A   Overcast
9:15 AM 28.4 °F 17.5 °F 23.0 °F 80% 29.95 in 10.0 mi SE 13.8 mph 23.0 mph N/A   Overcast
9:35 AM 28.4 °F 16.2 °F 23.0 °F 80% 29.94 in 10.0 mi SE 17.3 mph 21.9 mph N/A   Overcast
9:55 AM 28.4 °F 16.6 °F 21.2 °F 74% 29.93 in 10.0 mi SE 16.1 mph 25.3 mph N/A   Overcast
10:15 AM 28.4 °F 17.0 °F 21.2 °F 74% 29.92 in 10.0 mi SE 15.0 mph 21.9 mph N/A   Overcast
10:35 AM 30.2 °F 17.8 °F 19.4 °F 64% 29.91 in 10.0 mi SE 19.6 mph 25.3 mph N/A   Overcast
10:55 AM 32.0 °F 22.1 °F 17.6 °F 55% 29.90 in 10.0 mi SE 13.8 mph 26.5 mph N/A   Mostly Cloudy
11:15 AM 32.0 °F 20.5 °F 15.8 °F 51% 29.88 in 10.0 mi SE 18.4 mph 25.3 mph N/A   Mostly Cloudy
11:35 AM 33.8 °F 23.2 °F 15.8 °F 48% 29.89 in 10.0 mi SE 17.3 mph 21.9 mph N/A   Partly Cloudy
11:55 AM 35.6 °F 26.2 °F 14.0 °F 41% 29.88 in 10.0 mi SSE 15.0 mph 23.0 mph N/A   Partly Cloudy
12:15 PM 35.6 °F 25.9 °F 14.0 °F 41% 29.87 in 10.0 mi SE 16.1 mph 23.0 mph N/A   Scattered Clouds
12:35 PM 35.6 °F 25.9 °F 14.0 °F 41% 29.86 in 10.0 mi SSE 16.1 mph 21.9 mph N/A   Scattered Clouds
12:55 PM 37.4 °F 27.8 °F 14.0 °F 38% 29.84 in 10.0 mi SSE 17.3 mph - N/A   Clear
1:15 PM 39.2 °F 29.8 °F 14.0 °F 36% 29.82 in 10.0 mi SSE 18.4 mph 25.3 mph N/A   Clear
1:35 PM 39.2 °F 29.0 °F 15.8 °F 39% 29.80 in 10.0 mi SE 21.9 mph 28.8 mph N/A   Partly Cloudy
1:55 PM 41.0 °F 32.2 °F 15.8 °F 36% 29.79 in 10.0 mi SSE 18.4 mph 27.6 mph N/A   Scattered Clouds
2:15 PM 42.8 °F 34.3 °F 17.6 °F 36% 29.77 in 10.0 mi SE 19.6 mph 26.5 mph N/A   Overcast
2:35 PM 44.6 °F 37.2 °F 17.6 °F 34% 29.76 in 10.0 mi SSE 17.3 mph 24.2 mph N/A   Overcast
2:55 PM 44.6 °F 36.6 °F 19.4 °F 37% 29.75 in 10.0 mi SSE 19.6 mph 25.3 mph N/A   Scattered Clouds
3:15 PM 44.6 °F 37.4 °F 19.4 °F 37% 29.74 in 10.0 mi SSE 16.1 mph 23.0 mph N/A   Clear
3:35 PM 46.4 °F 39.8 °F 19.4 °F 34% 29.73 in 10.0 mi SSE 16.1 mph 19.6 mph N/A   Clear
3:55 PM 46.4 °F 39.5 °F 21.2 °F 37% 29.73 in 10.0 mi SSE 17.3 mph 21.9 mph N/A   Clear
4:15 PM 46.4 °F 39.8 °F 21.2 °F 37% 29.72 in 10.0 mi South 16.1 mph 25.3 mph N/A   Clear
4:35 PM 46.4 °F 39.5 °F 21.2 °F 37% 29.71 in 10.0 mi SSE 17.3 mph 25.3 mph N/A   Clear
4:55 PM 48.2 °F - 23.0 °F 37% 29.70 in 10.0 mi South 13.8 mph 20.7 mph N/A   Clear
5:15 PM 46.4 °F 40.4 °F 23.0 °F 40% 29.70 in 10.0 mi SSE 13.8 mph 19.6 mph N/A   Clear
5:35 PM 46.4 °F 40.1 °F 23.0 °F 40% 29.70 in 10.0 mi SSE 15.0 mph - N/A   Clear
5:55 PM 48.2 °F - 23.0 °F 37% 29.69 in 10.0 mi SSE 13.8 mph - N/A   Clear
6:15 PM 46.4 °F 40.7 °F 23.0 °F 40% 29.69 in 10.0 mi SSE 12.7 mph - N/A   Clear
6:35 PM 46.4 °F 41.1 °F 24.8 °F 43% 29.69 in 10.0 mi SSE 11.5 mph - N/A   Clear
6:55 PM 46.4 °F 41.9 °F 24.8 °F 43% 29.69 in 10.0 mi SSE 9.2 mph - N/A   Clear
7:15 PM 46.4 °F 40.7 °F 24.8 °F 43% 29.68 in 10.0 mi SSE 12.7 mph - N/A   Clear
7:35 PM 44.6 °F 39.2 °F 24.8 °F 46% 29.67 in 10.0 mi SE 10.4 mph - N/A   Partly Cloudy
7:55 PM 42.8 °F 38.0 °F 24.8 °F 49% 29.67 in 10.0 mi SE 8.1 mph - N/A   Clear
8:15 PM 41.0 °F 35.8 °F 24.8 °F 53% 29.67 in 10.0 mi ESE 8.1 mph - N/A   Clear
8:35 PM 41.0 °F 35.8 °F 26.6 °F 57% 29.67 in 10.0 mi ESE 8.1 mph - N/A   Clear
8:55 PM 39.2 °F 34.2 °F 26.6 °F 61% 29.67 in 10.0 mi ESE 6.9 mph - N/A   Clear
9:15 PM 37.4 °F 33.8 °F 26.6 °F 65% 29.67 in 10.0 mi East 4.6 mph - N/A   Clear
9:35 PM 35.6 °F 32.8 °F 24.8 °F 65% 29.68 in 10.0 mi East 3.5 mph - N/A   Clear
9:55 PM 35.6 °F 28.6 °F 26.6 °F 70% 29.69 in 10.0 mi SE 9.2 mph - N/A   Clear
10:15 PM 33.8 °F 27.7 °F 28.4 °F 81% 29.69 in 10.0 mi East 6.9 mph - N/A   Clear
10:35 PM 33.8 °F 27.7 °F 28.4 °F 81% 29.70 in 10.0 mi East 6.9 mph - N/A   Clear
10:55 PM 32.0 °F 26.4 °F 28.4 °F 87% 29.69 in 10.0 mi East 5.8 mph - N/A   Clear
11:15 PM 32.0 °F 26.4 °F 28.4 °F 87% 29.69 in 10.0 mi ESE 5.8 mph - N/A   Clear
11:35 PM 32.0 °F 25.6 °F 28.4 °F 87% 29.69 in 10.0 mi ESE 6.9 mph - N/A   Clear
11:55 PM 32.0 °F 26.4 °F 28.4 °F 87% 29.69 in 10.0 mi East 5.8 mph - N/A   Scattered Clouds